Time,TemperatureF,DewpointF,PressureIn,WindDirection,WindDirectionDegrees,WindSpeedMPH,WindSpeedGustMPH,Humidity,HourlyPrecipIn,Conditions,Clouds,dailyrainin,SoftwareType,DateUTC
2013-01-12 00:04:00,42.7,35.9,30.16,SE,135,0.2,0.7,77,0.00,,,0.00,WUHU216HW,2013-01-12 08:04:00,
2013-01-12 00:10:00,42.5,35.7,30.16,SE,135,1.1,1.1,77,0.00,,,0.00,WUHU216HW,2013-01-12 08:10:00,
2013-01-12 00:15:00,42.3,35.6,30.16,NE,45,0.0,1.1,77,0.00,,,0.00,WUHU216HW,2013-01-12 08:15:00,
2013-01-12 00:20:00,42.1,35.4,30.16,West,270,0.4,0.7,77,0.00,,,0.00,WUHU216HW,2013-01-12 08:20:00,
2013-01-12 00:25:00,41.8,35.4,30.16,SE,135,3.4,3.4,78,0.00,,,0.00,WUHU216HW,2013-01-12 08:25:00,
2013-01-12 00:30:00,41.8,35.4,30.16,ESE,113,2.7,3.4,78,0.00,,,0.00,WUHU216HW,2013-01-12 08:30:00,
2013-01-12 00:36:00,41.6,35.2,30.16,East,90,4.3,4.3,78,0.00,,,0.00,WUHU216HW,2013-01-12 08:36:00,
2013-01-12 00:41:00,41.4,35.3,30.16,ENE,68,1.1,4.5,79,0.00,,,0.00,WUHU216HW,2013-01-12 08:41:00,
2013-01-12 00:46:00,41.4,35.3,30.16,ENE,68,2.2,2.7,79,0.00,,,0.00,WUHU216HW,2013-01-12 08:46:00,
2013-01-12 00:52:00,41.2,35.1,30.16,ENE,68,2.0,2.2,79,0.00,,,0.00,WUHU216HW,2013-01-12 08:52:00,
2013-01-12 00:57:00,41.2,35.1,30.16,SSE,158,3.6,3.6,79,0.00,,,0.00,WUHU216HW,2013-01-12 08:57:00,
2013-01-12 01:03:00,41.0,34.9,30.16,ENE,68,1.6,4.0,79,0.00,,,0.00,WUHU216HW,2013-01-12 09:03:00,
2013-01-12 01:08:00,40.9,34.8,30.16,East,90,1.6,4.0,79,0.00,,,0.00,WUHU216HW,2013-01-12 09:08:00,
2013-01-12 01:14:00,40.7,34.9,30.16,East,90,1.8,2.9,80,0.00,,,0.00,WUHU216HW,2013-01-12 09:14:00,
2013-01-12 01:19:00,40.7,34.9,30.16,ENE,68,0.7,1.8,80,0.00,,,0.00,WUHU216HW,2013-01-12 09:19:00,
2013-01-12 01:24:00,40.7,34.9,30.16,SE,135,0.4,1.8,80,0.00,,,0.00,WUHU216HW,2013-01-12 09:24:00,
2013-01-12 01:30:00,40.7,34.9,30.16,ENE,68,0.0,0.9,80,0.00,,,0.00,WUHU216HW,2013-01-12 09:30:00,
2013-01-12 01:35:00,40.7,34.9,30.16,SSW,203,0.0,0.9,80,0.00,,,0.00,WUHU216HW,2013-01-12 09:35:00,
2013-01-12 01:40:00,40.7,34.9,30.16,SE,135,0.4,0.4,80,0.00,,,0.00,WUHU216HW,2013-01-12 09:40:00,
2013-01-12 01:46:00,40.5,34.8,30.16,NNW,338,1.3,1.3,80,0.00,,,0.00,WUHU216HW,2013-01-12 09:46:00,
2013-01-12 01:51:00,40.3,34.7,30.16,West,270,0.9,1.3,80,0.00,,,0.00,WUHU216HW,2013-01-12 09:51:00,
2013-01-12 01:57:00,40.1,34.5,30.16,SE,135,0.9,0.9,80,0.00,,,0.00,WUHU216HW,2013-01-12 09:57:00,
2013-01-12 02:02:00,40.1,34.7,30.16,East,90,0.4,0.9,81,0.00,,,0.00,WUHU216HW,2013-01-12 10:02:00,
2013-01-12 02:07:00,40.1,34.7,30.16,NNE,23,1.1,1.1,81,0.00,,,0.00,WUHU216HW,2013-01-12 10:07:00,
2013-01-12 02:13:00,40.1,34.7,30.16,East,90,0.4,1.1,81,0.00,,,0.00,WUHU216HW,2013-01-12 10:13:00,
2013-01-12 02:18:00,40.1,34.7,30.16,South,180,1.1,1.1,81,0.00,,,0.00,WUHU216HW,2013-01-12 10:18:00,
2013-01-12 02:23:00,40.1,34.1,30.16,ENE,68,2.5,2.5,79,0.00,,,0.00,WUHU216HW,2013-01-12 10:23:00,
2013-01-12 02:28:00,40.0,33.9,30.16,NE,45,1.8,2.5,79,0.00,,,0.00,WUHU216HW,2013-01-12 10:28:00,
2013-01-12 02:34:00,40.0,33.9,30.17,ENE,68,0.7,2.5,79,0.00,,,0.00,WUHU216HW,2013-01-12 10:34:00,
2013-01-12 02:39:00,40.0,33.9,30.17,ESE,113,0.2,1.8,79,0.00,,,0.00,WUHU216HW,2013-01-12 10:39:00,
2013-01-12 02:44:00,39.8,33.9,30.17,ENE,68,1.3,1.6,79,0.00,,,0.00,WUHU216HW,2013-01-12 10:44:00,
2013-01-12 02:50:00,39.8,33.9,30.17,NW,315,0.4,1.3,79,0.00,,,0.00,WUHU216HW,2013-01-12 10:50:00,
2013-01-12 02:55:00,39.6,33.7,30.17,NW,315,1.3,1.3,79,0.00,,,0.00,WUHU216HW,2013-01-12 10:55:00,
2013-01-12 03:00:00,39.2,33.3,30.17,ESE,113,0.7,1.3,79,0.00,,,0.00,WUHU216HW,2013-01-12 11:00:00,
2013-01-12 03:06:00,39.2,33.3,30.17,SE,135,0.0,1.1,79,0.00,,,0.00,WUHU216HW,2013-01-12 11:06:00,
2013-01-12 03:11:00,39.2,33.7,30.17,ESE,113,0.0,1.1,80,0.00,,,0.00,WUHU216HW,2013-01-12 11:11:00,
2013-01-12 03:16:00,39.2,33.3,30.17,South,180,0.2,0.2,79,0.00,,,0.00,WUHU216HW,2013-01-12 11:16:00,
2013-01-12 03:22:00,39.1,33.5,30.17,South,180,0.0,0.2,80,0.00,,,0.00,WUHU216HW,2013-01-12 11:22:00,
2013-01-12 03:27:00,38.9,32.9,30.17,ESE,113,0.9,0.9,79,0.00,,,0.00,WUHU216HW,2013-01-12 11:27:00,
2013-01-12 03:32:00,38.9,32.9,30.17,NE,45,1.1,1.1,79,0.00,,,0.00,WUHU216HW,2013-01-12 11:32:00,
2013-01-12 03:38:00,38.9,32.9,30.17,North,0,0.0,1.1,79,0.00,,,0.00,WUHU216HW,2013-01-12 11:38:00,
2013-01-12 03:43:00,38.7,32.8,30.17,NE,45,1.1,1.1,79,0.00,,,0.00,WUHU216HW,2013-01-12 11:43:00,
2013-01-12 03:48:00,38.7,32.8,30.17,NE,45,3.6,3.6,79,0.00,,,0.00,WUHU216HW,2013-01-12 11:48:00,
2013-01-12 03:53:00,38.5,32.9,30.17,ENE,68,3.1,3.6,80,0.00,,,0.00,WUHU216HW,2013-01-12 11:53:00,
2013-01-12 03:59:00,38.7,33.1,30.17,WNW,293,0.9,3.6,80,0.00,,,0.00,WUHU216HW,2013-01-12 11:59:00,
2013-01-12 04:04:00,38.7,33.1,30.17,ESE,113,1.3,1.3,80,0.00,,,0.00,WUHU216HW,2013-01-12 12:04:00,
2013-01-12 04:10:00,38.5,32.9,30.16,NNE,23,1.1,1.3,80,0.00,,,0.00,WUHU216HW,2013-01-12 12:10:00,
2013-01-12 04:15:00,38.5,32.9,30.16,NE,45,0.4,2.5,80,0.00,,,0.00,WUHU216HW,2013-01-12 12:15:00,
2013-01-12 04:21:00,38.5,32.9,30.16,ENE,68,1.1,2.5,80,0.00,,,0.00,WUHU216HW,2013-01-12 12:21:00,
2013-01-12 04:26:00,38.5,32.9,30.16,ENE,68,2.0,2.0,80,0.00,,,0.00,WUHU216HW,2013-01-12 12:26:00,
2013-01-12 04:32:00,38.5,32.9,30.16,NW,315,0.9,2.0,80,0.00,,,0.00,WUHU216HW,2013-01-12 12:32:00,
2013-01-12 04:37:00,38.5,32.9,30.16,NW,315,0.0,2.0,80,0.00,,,0.00,WUHU216HW,2013-01-12 12:37:00,
2013-01-12 04:43:00,38.5,32.6,30.17,ENE,68,1.8,1.8,79,0.00,,,0.00,WUHU216HW,2013-01-12 12:43:00,
2013-01-12 04:48:00,38.5,32.6,30.16,ENE,68,1.1,2.0,79,0.00,,,0.00,WUHU216HW,2013-01-12 12:48:00,
2013-01-12 04:54:00,38.3,32.4,30.16,North,0,1.6,2.2,79,0.00,,,0.00,WUHU216HW,2013-01-12 12:54:00,
2013-01-12 04:59:00,38.3,32.4,30.17,NNE,23,0.4,2.2,79,0.00,,,0.00,WUHU216HW,2013-01-12 12:59:00,
2013-01-12 05:05:00,38.3,32.8,30.16,ESE,113,3.6,3.6,80,0.00,,,0.00,WUHU216HW,2013-01-12 13:05:00,
2013-01-12 05:10:00,38.3,32.8,30.16,NE,45,1.3,3.6,80,0.00,,,0.00,WUHU216HW,2013-01-12 13:10:00,
2013-01-12 05:16:00,38.3,32.4,30.16,NE,45,2.2,3.1,79,0.00,,,0.00,WUHU216HW,2013-01-12 13:16:00,
2013-01-12 05:21:00,38.2,32.2,30.17,ENE,68,1.1,3.1,79,0.00,,,0.00,WUHU216HW,2013-01-12 13:21:00,
2013-01-12 05:27:00,38.2,32.2,30.17,SE,135,2.0,2.7,79,0.00,,,0.00,WUHU216HW,2013-01-12 13:27:00,
2013-01-12 05:32:00,38.0,32.0,30.17,East,90,2.9,2.9,79,0.00,,,0.00,WUHU216HW,2013-01-12 13:32:00,
2013-01-12 05:38:00,38.0,32.0,30.17,NE,45,2.7,3.4,79,0.00,,,0.00,WUHU216HW,2013-01-12 13:38:00,
2013-01-12 05:43:00,37.8,31.9,30.17,NE,45,6.0,6.0,79,0.00,,,0.00,WUHU216HW,2013-01-12 13:43:00,
2013-01-12 05:48:00,37.8,31.9,30.17,NNE,23,1.6,6.0,79,0.00,,,0.00,WUHU216HW,2013-01-12 13:48:00,
2013-01-12 05:54:00,37.8,31.9,30.18,SSE,158,0.0,1.8,79,0.00,,,0.00,WUHU216HW,2013-01-12 13:54:00,
2013-01-12 05:59:00,37.8,31.9,30.18,East,90,0.9,1.6,79,0.00,,,0.00,WUHU216HW,2013-01-12 13:59:00,
2013-01-12 06:05:00,37.8,31.9,30.18,ENE,68,1.8,1.8,79,0.00,,,0.00,WUHU216HW,2013-01-12 14:05:00,
2013-01-12 06:10:00,37.6,31.7,30.19,East,90,1.3,2.7,79,0.00,,,0.00,WUHU216HW,2013-01-12 14:10:00,
2013-01-12 06:16:00,37.6,31.7,30.19,WNW,293,0.0,2.7,79,0.00,,,0.00,WUHU216HW,2013-01-12 14:16:00,
2013-01-12 06:21:00,37.4,31.5,30.19,NNW,338,0.0,1.1,79,0.00,,,0.00,WUHU216HW,2013-01-12 14:21:00,
2013-01-12 06:27:00,37.4,31.5,30.19,North,0,0.4,1.1,79,0.00,,,0.00,WUHU216HW,2013-01-12 14:27:00,
2013-01-12 06:32:00,37.3,31.3,30.20,NW,315,0.2,1.1,79,0.00,,,0.00,WUHU216HW,2013-01-12 14:32:00,
2013-01-12 06:38:00,37.3,31.3,30.20,North,0,0.9,1.8,79,0.00,,,0.00,WUHU216HW,2013-01-12 14:38:00,
2013-01-12 06:43:00,37.1,31.1,30.20,NE,45,3.6,3.6,79,0.00,,,0.00,WUHU216HW,2013-01-12 14:43:00,
2013-01-12 06:49:00,37.1,31.1,30.21,WNW,293,0.0,3.6,79,0.00,,,0.00,WUHU216HW,2013-01-12 14:49:00,
2013-01-12 06:54:00,37.1,31.5,30.21,NNE,23,1.8,3.6,80,0.00,,,0.00,WUHU216HW,2013-01-12 14:54:00,
2013-01-12 07:00:00,37.1,31.5,30.21,North,0,0.4,2.7,80,0.00,,,0.00,WUHU216HW,2013-01-12 15:00:00,
2013-01-12 07:05:00,37.1,31.5,30.22,ENE,68,1.1,1.1,80,0.00,,,0.00,WUHU216HW,2013-01-12 15:05:00,
2013-01-12 07:11:00,37.1,31.5,30.22,NE,45,1.6,1.6,80,0.00,,,0.00,WUHU216HW,2013-01-12 15:11:00,
2013-01-12 07:16:00,37.1,31.5,30.23,East,90,2.9,3.6,80,0.00,,,0.00,WUHU216HW,2013-01-12 15:16:00,
2013-01-12 07:22:00,37.1,31.5,30.23,NE,45,2.2,3.6,80,0.00,,,0.00,WUHU216HW,2013-01-12 15:22:00,
2013-01-12 07:27:00,36.9,31.3,30.23,ENE,68,2.5,4.0,80,0.00,,,0.00,WUHU216HW,2013-01-12 15:27:00,
2013-01-12 07:33:00,36.9,31.3,30.23,SSE,158,1.8,4.0,80,0.00,,,0.00,WUHU216HW,2013-01-12 15:33:00,
2013-01-12 07:38:00,36.7,31.1,30.23,ESE,113,2.5,5.4,80,0.00,,,0.00,WUHU216HW,2013-01-12 15:38:00,
2013-01-12 07:44:00,36.5,31.0,30.24,East,90,2.0,5.4,80,0.00,,,0.00,WUHU216HW,2013-01-12 15:44:00,
2013-01-12 07:50:00,36.5,31.0,30.24,ENE,68,2.5,3.4,80,0.00,,,0.00,WUHU216HW,2013-01-12 15:50:00,
2013-01-12 07:55:00,36.7,31.1,30.24,ENE,68,4.9,4.9,80,0.00,,,0.00,WUHU216HW,2013-01-12 15:55:00,
2013-01-12 08:01:00,36.7,31.1,30.24,ENE,68,2.2,4.9,80,0.00,,,0.00,WUHU216HW,2013-01-12 16:01:00,
2013-01-12 08:06:00,36.9,31.0,30.24,ENE,68,2.9,3.4,79,0.00,,,0.00,WUHU216HW,2013-01-12 16:06:00,
2013-01-12 08:11:00,36.9,31.0,30.24,ENE,68,3.4,3.4,79,0.00,,,0.00,WUHU216HW,2013-01-12 16:11:00,
2013-01-12 08:16:00,37.1,31.1,30.24,East,90,8.5,8.5,79,0.00,,,0.00,WUHU216HW,2013-01-12 16:16:00,
2013-01-12 08:21:00,38.2,31.2,30.24,NE,45,6.5,8.5,76,0.00,,,0.00,WUHU216HW,2013-01-12 16:21:00,
2013-01-12 08:26:00,38.5,32.3,30.24,ENE,68,1.6,7.4,78,0.00,,,0.00,WUHU216HW,2013-01-12 16:26:00,
2013-01-12 08:31:00,38.3,31.8,30.24,ESE,113,3.6,4.9,77,0.00,,,0.00,WUHU216HW,2013-01-12 16:31:00,
2013-01-12 08:36:00,38.0,31.4,30.24,SE,135,3.8,4.7,77,0.00,,,0.00,WUHU216HW,2013-01-12 16:36:00,
2013-01-12 08:41:00,37.8,31.6,30.24,ENE,68,4.0,4.7,78,0.00,,,0.00,WUHU216HW,2013-01-12 16:41:00,
2013-01-12 08:46:00,37.8,31.6,30.24,NNE,23,4.0,5.6,78,0.00,,,0.00,WUHU216HW,2013-01-12 16:46:00,
2013-01-12 08:51:00,38.0,31.8,30.24,NE,45,4.0,5.6,78,0.00,,,0.00,WUHU216HW,2013-01-12 16:51:00,
2013-01-12 08:56:00,38.2,32.0,30.24,NE,45,3.4,4.3,78,0.00,,,0.00,WUHU216HW,2013-01-12 16:56:00,
2013-01-12 09:01:00,38.5,32.6,30.24,NE,45,3.4,4.3,79,0.00,,,0.00,WUHU216HW,2013-01-12 17:01:00,
2013-01-12 09:06:00,38.5,32.6,30.25,ENE,68,2.5,3.4,79,0.00,,,0.00,WUHU216HW,2013-01-12 17:06:00,
2013-01-12 09:11:00,38.9,32.9,30.24,SE,135,3.4,3.4,79,0.00,,,0.00,WUHU216HW,2013-01-12 17:11:00,
2013-01-12 09:16:00,39.2,32.7,30.24,SE,135,3.4,3.4,77,0.00,,,0.00,WUHU216HW,2013-01-12 17:16:00,
2013-01-12 09:21:00,39.4,32.8,30.24,East,90,2.5,3.4,77,0.00,,,0.00,WUHU216HW,2013-01-12 17:21:00,
2013-01-12 09:26:00,39.8,32.5,30.25,ENE,68,2.2,3.4,75,0.00,,,0.00,WUHU216HW,2013-01-12 17:26:00,
2013-01-12 09:31:00,40.0,32.3,30.25,ESE,113,3.8,3.8,74,0.00,,,0.00,WUHU216HW,2013-01-12 17:31:00,
2013-01-12 09:36:00,40.3,31.7,30.25,East,90,2.5,3.8,71,0.00,,,0.00,WUHU216HW,2013-01-12 17:36:00,
2013-01-12 09:41:00,40.7,31.0,30.25,East,90,2.5,3.4,68,0.00,,,0.00,WUHU216HW,2013-01-12 17:41:00,
2013-01-12 09:46:00,41.0,30.9,30.25,East,90,0.9,2.5,67,0.00,,,0.00,WUHU216HW,2013-01-12 17:46:00,
2013-01-12 09:51:00,41.4,31.2,30.25,East,90,4.0,4.0,67,0.00,,,0.00,WUHU216HW,2013-01-12 17:51:00,
2013-01-12 09:56:00,41.8,31.6,30.24,NNE,23,2.0,4.0,67,0.00,,,0.00,WUHU216HW,2013-01-12 17:56:00,
2013-01-12 10:01:00,41.9,31.0,30.24,NNE,23,3.4,4.0,65,0.00,,,0.00,WUHU216HW,2013-01-12 18:01:00,
2013-01-12 10:06:00,42.3,30.6,30.24,ENE,68,2.9,4.0,63,0.00,,,0.00,WUHU216HW,2013-01-12 18:06:00,
2013-01-12 10:11:00,42.7,30.9,30.24,North,0,5.1,5.1,63,0.00,,,0.00,WUHU216HW,2013-01-12 18:11:00,
2013-01-12 10:16:00,42.8,31.1,30.24,ENE,68,2.0,5.1,63,0.00,,,0.00,WUHU216HW,2013-01-12 18:16:00,
2013-01-12 10:21:00,43.0,31.7,30.24,ENE,68,1.8,5.1,64,0.00,,,0.00,WUHU216HW,2013-01-12 18:21:00,
2013-01-12 10:26:00,43.2,31.4,30.24,SSE,158,3.1,3.6,63,0.00,,,0.00,WUHU216HW,2013-01-12 18:26:00,
2013-01-12 10:31:00,43.6,31.8,30.24,SE,135,3.4,5.4,63,0.00,,,0.00,WUHU216HW,2013-01-12 18:31:00,
2013-01-12 10:36:00,43.7,32.3,30.24,SE,135,4.0,5.4,64,0.00,,,0.00,WUHU216HW,2013-01-12 18:36:00,
2013-01-12 10:41:00,43.7,32.0,30.24,SE,135,2.7,4.3,63,0.00,,,0.00,WUHU216HW,2013-01-12 18:41:00,
2013-01-12 10:46:00,43.9,32.1,30.24,ENE,68,2.7,4.3,63,0.00,,,0.00,WUHU216HW,2013-01-12 18:46:00,
2013-01-12 10:51:00,44.1,32.3,30.24,SSE,158,2.5,3.6,63,0.00,,,0.00,WUHU216HW,2013-01-12 18:51:00,
2013-01-12 10:56:00,44.3,32.5,30.24,SE,135,4.3,4.3,63,0.00,,,0.00,WUHU216HW,2013-01-12 18:56:00,
2013-01-12 11:01:00,44.3,32.5,30.23,East,90,0.4,4.3,63,0.00,,,0.00,WUHU216HW,2013-01-12 19:01:00,
2013-01-12 11:06:00,44.6,32.4,30.23,SSE,158,1.3,2.7,62,0.00,,,0.00,WUHU216HW,2013-01-12 19:06:00,
2013-01-12 11:11:00,44.6,31.7,30.23,ESE,113,2.5,2.5,60,0.00,,,0.00,WUHU216HW,2013-01-12 19:11:00,
2013-01-12 11:16:00,44.8,32.2,30.23,SE,135,4.3,5.1,61,0.00,,,0.00,WUHU216HW,2013-01-12 19:16:00,
2013-01-12 11:21:00,45.0,32.4,30.23,ESE,113,4.0,5.1,61,0.00,,,0.00,WUHU216HW,2013-01-12 19:21:00,
2013-01-12 11:26:00,45.2,32.6,30.22,SE,135,3.4,4.7,61,0.00,,,0.00,WUHU216HW,2013-01-12 19:26:00,
2013-01-12 11:31:00,45.5,32.9,30.22,SE,135,2.7,4.7,61,0.00,,,0.00,WUHU216HW,2013-01-12 19:31:00,
2013-01-12 11:36:00,45.7,32.7,30.22,ESE,113,3.6,4.7,60,0.00,,,0.00,WUHU216HW,2013-01-12 19:36:00,
2013-01-12 11:41:00,45.9,32.9,30.21,ESE,113,3.4,4.7,60,0.00,,,0.00,WUHU216HW,2013-01-12 19:41:00,
2013-01-12 11:46:00,46.1,32.5,30.21,SE,135,4.0,4.0,59,0.00,,,0.00,WUHU216HW,2013-01-12 19:46:00,
2013-01-12 11:51:00,46.3,30.4,30.21,East,90,1.6,4.0,54,0.00,,,0.00,WUHU216HW,2013-01-12 19:51:00,
2013-01-12 11:56:00,46.4,32.0,30.21,ESE,113,4.0,4.9,57,0.00,,,0.00,WUHU216HW,2013-01-12 19:56:00,
2013-01-12 12:01:00,46.6,32.1,30.20,ESE,113,1.3,5.4,57,0.00,,,0.00,WUHU216HW,2013-01-12 20:01:00,
2013-01-12 12:06:00,46.6,32.1,30.20,SE,135,3.6,5.4,57,0.00,,,0.00,WUHU216HW,2013-01-12 20:06:00,
2013-01-12 12:11:00,46.8,31.9,30.19,SE,135,3.8,5.4,56,0.00,,,0.00,WUHU216HW,2013-01-12 20:11:00,
2013-01-12 12:16:00,47.0,32.5,30.19,SSE,158,5.4,5.8,57,0.00,,,0.00,WUHU216HW,2013-01-12 20:16:00,
2013-01-12 12:21:00,47.0,32.1,30.19,SE,135,3.4,5.8,56,0.00,,,0.00,WUHU216HW,2013-01-12 20:21:00,
2013-01-12 12:26:00,47.2,32.2,30.19,South,180,1.6,5.1,56,0.00,,,0.00,WUHU216HW,2013-01-12 20:26:00,
2013-01-12 12:31:00,47.3,31.9,30.18,SE,135,4.0,4.3,55,0.00,,,0.00,WUHU216HW,2013-01-12 20:31:00,
2013-01-12 12:36:00,47.5,28.7,30.18,ESE,113,2.2,4.3,48,0.00,,,0.00,WUHU216HW,2013-01-12 20:36:00,
2013-01-12 12:41:00,47.5,30.3,30.18,SSE,158,2.5,4.0,51,0.00,,,0.00,WUHU216HW,2013-01-12 20:41:00,
2013-01-12 12:46:00,47.5,28.2,30.18,SE,135,2.0,4.0,47,0.00,,,0.00,WUHU216HW,2013-01-12 20:46:00,
2013-01-12 12:51:00,47.7,29.4,30.17,ENE,68,3.4,4.3,49,0.00,,,0.00,WUHU216HW,2013-01-12 20:51:00,
2013-01-12 12:56:00,47.9,29.0,30.17,ENE,68,3.1,4.5,48,0.00,,,0.00,WUHU216HW,2013-01-12 20:56:00,
2013-01-12 13:01:00,47.9,27.4,30.17,SE,135,4.5,4.5,45,0.00,,,0.00,WUHU216HW,2013-01-12 21:01:00,
2013-01-12 13:06:00,47.9,27.9,30.17,SE,135,1.8,4.7,46,0.00,,,0.00,WUHU216HW,2013-01-12 21:06:00,
2013-01-12 13:11:00,47.9,28.4,30.16,ESE,113,2.5,4.7,47,0.00,,,0.00,WUHU216HW,2013-01-12 21:11:00,
2013-01-12 13:16:00,48.1,28.1,30.16,SE,135,2.2,3.4,46,0.00,,,0.00,WUHU216HW,2013-01-12 21:16:00,
2013-01-12 13:21:00,48.2,28.8,30.16,SE,135,2.5,3.8,47,0.00,,,0.00,WUHU216HW,2013-01-12 21:21:00,
2013-01-12 13:26:00,48.4,28.5,30.16,ESE,113,2.5,3.8,46,0.00,,,0.00,WUHU216HW,2013-01-12 21:26:00,
2013-01-12 13:31:00,48.4,30.1,30.16,SE,135,3.4,3.4,49,0.00,,,0.00,WUHU216HW,2013-01-12 21:31:00,
2013-01-12 13:36:00,48.6,29.7,30.16,ENE,68,2.5,3.4,48,0.00,,,0.00,WUHU216HW,2013-01-12 21:36:00,
2013-01-12 13:41:00,48.6,28.1,30.16,North,0,3.1,5.4,45,0.00,,,0.00,WUHU216HW,2013-01-12 21:41:00,
2013-01-12 13:46:00,48.6,28.6,30.16,ESE,113,2.7,5.4,46,0.00,,,0.00,WUHU216HW,2013-01-12 21:46:00,
2013-01-12 13:51:00,48.8,30.4,30.16,NNE,23,1.3,4.7,49,0.00,,,0.00,WUHU216HW,2013-01-12 21:51:00,
2013-01-12 13:56:00,48.8,29.4,30.16,SE,135,1.8,4.3,47,0.00,,,0.00,WUHU216HW,2013-01-12 21:56:00,
2013-01-12 14:01:00,49.0,30.6,30.16,SSW,203,1.1,4.3,49,0.00,,,0.00,WUHU216HW,2013-01-12 22:01:00,
2013-01-12 14:06:00,49.1,30.8,30.16,SE,135,2.9,5.4,49,0.00,,,0.00,WUHU216HW,2013-01-12 22:06:00,
2013-01-12 14:11:00,49.1,30.8,30.15,SE,135,3.1,5.4,49,0.00,,,0.00,WUHU216HW,2013-01-12 22:11:00,
2013-01-12 14:16:00,49.3,31.5,30.15,SE,135,0.9,4.5,50,0.00,,,0.00,WUHU216HW,2013-01-12 22:16:00,
2013-01-12 14:21:00,49.3,31.5,30.15,SSE,158,3.6,3.8,50,0.00,,,0.00,WUHU216HW,2013-01-12 22:21:00,
2013-01-12 14:26:00,49.3,31.5,30.15,ESE,113,4.0,4.0,50,0.00,,,0.00,WUHU216HW,2013-01-12 22:26:00,
2013-01-12 14:31:00,49.3,31.0,30.15,SE,135,1.8,4.0,49,0.00,,,0.00,WUHU216HW,2013-01-12 22:31:00,
2013-01-12 14:36:00,49.3,31.0,30.15,SE,135,3.4,3.4,49,0.00,,,0.00,WUHU216HW,2013-01-12 22:36:00,
2013-01-12 14:41:00,49.3,31.0,30.15,WSW,248,1.1,3.4,49,0.00,,,0.00,WUHU216HW,2013-01-12 22:41:00,
2013-01-12 14:46:00,49.3,31.0,30.15,WSW,248,0.2,2.5,49,0.00,,,0.00,WUHU216HW,2013-01-12 22:46:00,
2013-01-12 14:51:00,49.3,31.0,30.15,SE,135,2.5,2.7,49,0.00,,,0.00,WUHU216HW,2013-01-12 22:51:00,
2013-01-12 14:56:00,49.5,31.2,30.15,ESE,113,3.1,3.1,49,0.00,,,0.00,WUHU216HW,2013-01-12 22:56:00,
2013-01-12 15:01:00,49.7,31.3,30.14,ESE,113,0.4,3.4,49,0.00,,,0.00,WUHU216HW,2013-01-12 23:01:00,
2013-01-12 15:06:00,49.5,31.7,30.14,SSE,158,1.6,4.5,50,0.00,,,0.00,WUHU216HW,2013-01-12 23:06:00,
2013-01-12 15:11:00,49.7,31.3,30.14,NE,45,2.5,4.5,49,0.00,,,0.00,WUHU216HW,2013-01-12 23:11:00,
2013-01-12 15:16:00,49.7,30.8,30.14,ENE,68,3.4,3.4,48,0.00,,,0.00,WUHU216HW,2013-01-12 23:16:00,
2013-01-12 15:21:00,49.5,29.4,30.13,NE,45,1.8,3.4,46,0.00,,,0.00,WUHU216HW,2013-01-12 23:21:00,
2013-01-12 15:26:00,49.3,30.4,30.13,SE,135,1.8,3.1,48,0.00,,,0.00,WUHU216HW,2013-01-12 23:26:00,
2013-01-12 15:31:00,49.5,31.2,30.13,SE,135,2.2,3.1,49,0.00,,,0.00,WUHU216HW,2013-01-12 23:31:00,
2013-01-12 15:36:00,49.5,31.2,30.13,ESE,113,2.5,2.9,49,0.00,,,0.00,WUHU216HW,2013-01-12 23:36:00,
2013-01-12 15:41:00,49.5,30.6,30.13,SE,135,2.9,2.9,48,0.00,,,0.00,WUHU216HW,2013-01-12 23:41:00,
2013-01-12 15:46:00,49.5,29.4,30.13,SE,135,1.1,2.9,46,0.00,,,0.00,WUHU216HW,2013-01-12 23:46:00,
2013-01-12 15:51:00,49.5,30.6,30.13,SE,135,2.9,2.9,48,0.00,,,0.00,WUHU216HW,2013-01-12 23:51:00,
2013-01-12 15:56:00,49.5,30.1,30.13,ENE,68,1.8,2.9,47,0.00,,,0.00,WUHU216HW,2013-01-12 23:56:00,
2013-01-12 16:01:00,49.5,30.6,30.13,NNE,23,2.5,2.9,48,0.00,,,0.00,WUHU216HW,2013-01-13 00:01:00,
2013-01-12 16:06:00,49.3,29.4,30.13,ENE,68,3.8,3.8,46,0.00,,,0.00,WUHU216HW,2013-01-13 00:06:00,
2013-01-12 16:11:00,49.3,29.9,30.13,SE,135,2.5,3.8,47,0.00,,,0.00,WUHU216HW,2013-01-13 00:11:00,
2013-01-12 16:16:00,49.3,30.4,30.13,SE,135,1.8,3.8,48,0.00,,,0.00,WUHU216HW,2013-01-13 00:16:00,
2013-01-12 16:21:00,49.3,31.0,30.13,ESE,113,1.3,2.0,49,0.00,,,0.00,WUHU216HW,2013-01-13 00:21:00,
2013-01-12 16:26:00,49.3,31.0,30.13,East,90,1.1,1.8,49,0.00,,,0.00,WUHU216HW,2013-01-13 00:26:00,
2013-01-12 16:31:00,49.3,31.0,30.13,ESE,113,0.0,2.0,49,0.00,,,0.00,WUHU216HW,2013-01-13 00:31:00,
2013-01-12 16:36:00,49.3,30.4,30.13,ENE,68,1.6,2.0,48,0.00,,,0.00,WUHU216HW,2013-01-13 00:36:00,
2013-01-12 16:41:00,49.0,30.1,30.13,NE,45,1.8,2.5,48,0.00,,,0.00,WUHU216HW,2013-01-13 00:41:00,
2013-01-12 16:46:00,48.6,29.2,30.13,NNE,23,2.0,2.9,47,0.00,,,0.00,WUHU216HW,2013-01-13 00:46:00,
2013-01-12 16:51:00,48.4,30.1,30.13,NNE,23,1.1,2.9,49,0.00,,,0.00,WUHU216HW,2013-01-13 00:51:00,
2013-01-12 16:56:00,48.4,30.1,30.13,NNE,23,1.8,2.9,49,0.00,,,0.00,WUHU216HW,2013-01-13 00:56:00,
2013-01-12 17:01:00,48.1,29.2,30.13,NNE,23,2.5,4.0,48,0.00,,,0.00,WUHU216HW,2013-01-13 01:01:00,
2013-01-12 17:06:00,47.9,30.1,30.13,ENE,68,1.1,4.0,50,0.00,,,0.00,WUHU216HW,2013-01-13 01:06:00,
2013-01-12 17:11:00,47.9,30.6,30.12,NE,45,1.1,2.7,51,0.00,,,0.00,WUHU216HW,2013-01-13 01:11:00,
2013-01-12 17:16:00,47.9,30.6,30.13,NE,45,1.8,1.8,51,0.00,,,0.00,WUHU216HW,2013-01-13 01:16:00,
2013-01-12 17:21:00,47.9,31.1,30.13,NE,45,2.5,2.5,52,0.00,,,0.00,WUHU216HW,2013-01-13 01:21:00,
2013-01-12 17:26:00,47.5,30.7,30.14,NE,45,0.9,2.5,52,0.00,,,0.00,WUHU216HW,2013-01-13 01:26:00,
2013-01-12 17:31:00,47.2,30.3,30.14,SE,135,0.2,2.5,52,0.00,,,0.00,WUHU216HW,2013-01-13 01:31:00,
2013-01-12 17:36:00,47.2,30.8,30.14,SW,225,0.0,2.5,53,0.00,,,0.00,WUHU216HW,2013-01-13 01:36:00,
2013-01-12 17:41:00,46.8,30.1,30.14,North,0,2.0,2.0,52,0.00,,,0.00,WUHU216HW,2013-01-13 01:41:00,
2013-01-12 17:46:00,46.6,30.3,30.14,ENE,68,1.1,2.0,53,0.00,,,0.00,WUHU216HW,2013-01-13 01:46:00,
2013-01-12 17:51:00,46.4,30.6,30.15,ENE,68,1.8,1.8,54,0.00,,,0.00,WUHU216HW,2013-01-13 01:51:00,
2013-01-12 17:56:00,46.3,30.9,30.15,ESE,113,1.6,1.8,55,0.00,,,0.00,WUHU216HW,2013-01-13 01:56:00,
2013-01-12 18:01:00,45.9,30.6,30.15,ENE,68,2.2,2.2,55,0.00,,,0.00,WUHU216HW,2013-01-13 02:01:00,
2013-01-12 18:06:00,45.7,30.4,30.15,NE,45,1.8,2.5,55,0.00,,,0.00,WUHU216HW,2013-01-13 02:06:00,
2013-01-12 18:11:00,45.5,30.7,30.15,NE,45,3.8,3.8,56,0.00,,,0.00,WUHU216HW,2013-01-13 02:11:00,
2013-01-12 18:16:00,45.4,30.5,30.15,NE,45,2.9,3.8,56,0.00,,,0.00,WUHU216HW,2013-01-13 02:16:00,
2013-01-12 18:21:00,45.2,30.3,30.15,ENE,68,2.2,3.8,56,0.00,,,0.00,WUHU216HW,2013-01-13 02:21:00,
2013-01-12 18:26:00,45.2,30.3,30.15,East,90,2.5,3.8,56,0.00,,,0.00,WUHU216HW,2013-01-13 02:26:00,
2013-01-12 18:31:00,45.2,29.9,30.15,North,0,3.6,3.6,55,0.00,,,0.00,WUHU216HW,2013-01-13 02:31:00,
2013-01-12 18:36:00,45.2,29.9,30.15,NE,45,8.7,8.7,55,0.00,,,0.00,WUHU216HW,2013-01-13 02:36:00,
2013-01-12 18:41:00,45.0,29.8,30.16,ENE,68,3.1,8.7,55,0.00,,,0.00,WUHU216HW,2013-01-13 02:41:00,
2013-01-12 18:46:00,45.2,29.9,30.16,NE,45,4.0,5.6,55,0.00,,,0.00,WUHU216HW,2013-01-13 02:46:00,
2013-01-12 18:51:00,45.0,29.8,30.15,ENE,68,1.8,5.4,55,0.00,,,0.00,WUHU216HW,2013-01-13 02:51:00,
2013-01-12 18:56:00,45.0,30.3,30.15,ENE,68,2.0,3.8,56,0.00,,,0.00,WUHU216HW,2013-01-13 02:56:00,
2013-01-12 19:01:00,45.0,30.3,30.15,NNE,23,2.2,2.2,56,0.00,,,0.00,WUHU216HW,2013-01-13 03:01:00,
2013-01-12 19:06:00,45.0,30.3,30.15,NNE,23,2.5,3.4,56,0.00,,,0.00,WUHU216HW,2013-01-13 03:06:00,
2013-01-12 19:11:00,44.8,29.6,30.15,NNE,23,6.0,7.8,55,0.00,,,0.00,WUHU216HW,2013-01-13 03:11:00,
2013-01-12 19:16:00,45.0,29.4,30.15,NNE,23,5.4,7.8,54,0.00,,,0.00,WUHU216HW,2013-01-13 03:16:00,
2013-01-12 19:21:00,45.0,29.4,30.14,NNE,23,4.7,7.2,54,0.00,,,0.00,WUHU216HW,2013-01-13 03:21:00,
2013-01-12 19:26:00,45.0,29.4,30.14,NNE,23,6.3,7.2,54,0.00,,,0.00,WUHU216HW,2013-01-13 03:26:00,
2013-01-12 19:31:00,45.0,29.4,30.14,NNE,23,5.4,6.9,54,0.00,,,0.00,WUHU216HW,2013-01-13 03:31:00,
2013-01-12 19:36:00,45.2,29.0,30.15,NE,45,6.5,6.9,53,0.00,,,0.00,WUHU216HW,2013-01-13 03:36:00,
2013-01-12 19:41:00,45.0,29.4,30.15,NE,45,5.6,7.2,54,0.00,,,0.00,WUHU216HW,2013-01-13 03:41:00,
2013-01-12 19:46:00,45.0,29.4,30.15,ENE,68,4.7,7.2,54,0.00,,,0.00,WUHU216HW,2013-01-13 03:46:00,
2013-01-12 19:51:00,44.8,29.2,30.15,NE,45,6.3,6.9,54,0.00,,,0.00,WUHU216HW,2013-01-13 03:51:00,
2013-01-12 19:56:00,44.6,29.0,30.15,ENE,68,3.8,6.9,54,0.00,,,0.00,WUHU216HW,2013-01-13 03:56:00,
2013-01-12 20:01:00,44.5,28.8,30.15,ENE,68,4.7,6.5,54,0.00,,,0.00,WUHU216HW,2013-01-13 04:01:00,
2013-01-12 20:06:00,44.5,29.3,30.15,ENE,68,2.7,4.7,55,0.00,,,0.00,WUHU216HW,2013-01-13 04:06:00,
2013-01-12 20:11:00,44.3,29.1,30.15,ENE,68,2.5,6.5,55,0.00,,,0.00,WUHU216HW,2013-01-13 04:11:00,
2013-01-12 20:16:00,44.3,29.1,30.15,North,0,6.3,8.5,55,0.00,,,0.00,WUHU216HW,2013-01-13 04:16:00,
2013-01-12 20:21:00,44.3,28.6,30.15,NE,45,6.5,8.5,54,0.00,,,0.00,WUHU216HW,2013-01-13 04:21:00,
2013-01-12 20:26:00,44.3,28.6,30.15,NE,45,7.2,7.4,54,0.00,,,0.00,WUHU216HW,2013-01-13 04:26:00,
2013-01-12 20:31:00,44.3,29.1,30.15,SE,135,3.1,7.4,55,0.00,,,0.00,WUHU216HW,2013-01-13 04:31:00,
2013-01-12 20:36:00,43.9,29.6,30.15,East,90,1.8,3.4,57,0.00,,,0.00,WUHU216HW,2013-01-13 04:36:00,
2013-01-12 20:41:00,43.6,30.2,30.15,ESE,113,2.5,2.5,59,0.00,,,0.00,WUHU216HW,2013-01-13 04:41:00,
2013-01-12 20:46:00,43.4,29.5,30.15,ENE,68,1.6,2.5,58,0.00,,,0.00,WUHU216HW,2013-01-13 04:46:00,
2013-01-12 20:51:00,43.2,30.2,30.15,East,90,2.5,2.5,60,0.00,,,0.00,WUHU216HW,2013-01-13 04:51:00,
2013-01-12 20:56:00,42.8,30.2,30.15,NE,45,4.3,4.3,61,0.00,,,0.00,WUHU216HW,2013-01-13 04:56:00,
2013-01-12 21:01:00,42.8,29.9,30.15,East,90,3.4,4.3,60,0.00,,,0.00,WUHU216HW,2013-01-13 05:01:00,
2013-01-12 21:06:00,43.2,28.9,30.14,SSE,158,3.1,7.6,57,0.00,,,0.00,WUHU216HW,2013-01-13 05:06:00,
2013-01-12 21:11:00,43.4,29.1,30.15,NE,45,3.6,7.6,57,0.00,,,0.00,WUHU216HW,2013-01-13 05:11:00,
2013-01-12 21:16:00,43.4,29.1,30.14,NE,45,1.8,4.7,57,0.00,,,0.00,WUHU216HW,2013-01-13 05:16:00,
2013-01-12 21:22:00,43.4,29.1,30.15,NNE,23,3.4,3.4,57,0.00,,,0.00,WUHU216HW,2013-01-13 05:22:00,
2013-01-12 21:27:00,43.2,28.9,30.15,NE,45,3.4,3.4,57,0.00,,,0.00,WUHU216HW,2013-01-13 05:27:00,
2013-01-12 21:32:00,43.0,29.2,30.15,ENE,68,2.2,4.3,58,0.00,,,0.00,WUHU216HW,2013-01-13 05:32:00,
2013-01-12 21:37:00,42.8,29.4,30.15,NE,45,1.8,4.3,59,0.00,,,0.00,WUHU216HW,2013-01-13 05:37:00,
2013-01-12 21:42:00,42.8,29.4,30.15,ESE,113,1.6,2.7,59,0.00,,,0.00,WUHU216HW,2013-01-13 05:42:00,
2013-01-12 21:47:00,42.8,29.9,30.15,ENE,68,3.4,3.4,60,0.00,,,0.00,WUHU216HW,2013-01-13 05:47:00,
2013-01-12 21:52:00,42.7,29.7,30.15,NE,45,6.3,6.3,60,0.00,,,0.00,WUHU216HW,2013-01-13 05:52:00,
2013-01-12 21:57:00,42.5,29.5,30.15,ENE,68,5.4,6.3,60,0.00,,,0.00,WUHU216HW,2013-01-13 05:57:00,
2013-01-12 22:02:00,42.5,29.5,30.15,NNE,23,4.9,6.3,60,0.00,,,0.00,WUHU216HW,2013-01-13 06:02:00,
2013-01-12 22:07:00,42.3,29.4,30.15,ENE,68,3.8,5.4,60,0.00,,,0.00,WUHU216HW,2013-01-13 06:07:00,
2013-01-12 22:12:00,42.1,29.3,30.16,NNE,23,4.0,4.0,60,0.00,,,0.00,WUHU216HW,2013-01-13 06:12:00,
2013-01-12 22:17:00,42.1,29.6,30.16,NNE,23,0.9,6.0,61,0.00,,,0.00,WUHU216HW,2013-01-13 06:17:00,
2013-01-12 22:22:00,42.1,29.3,30.16,NE,45,1.8,6.0,60,0.00,,,0.00,WUHU216HW,2013-01-13 06:22:00,
2013-01-12 22:27:00,42.1,29.3,30.16,ENE,68,4.3,5.8,60,0.00,,,0.00,WUHU216HW,2013-01-13 06:27:00,
2013-01-12 22:32:00,42.1,29.3,30.16,NNE,23,9.6,9.6,60,0.00,,,0.00,WUHU216HW,2013-01-13 06:32:00,
2013-01-12 22:37:00,41.9,29.1,30.16,NNE,23,5.6,9.6,60,0.00,,,0.00,WUHU216HW,2013-01-13 06:37:00,
2013-01-12 22:42:00,41.9,29.1,30.16,NNE,23,7.2,9.6,60,0.00,,,0.00,WUHU216HW,2013-01-13 06:42:00,
2013-01-12 22:47:00,41.9,29.1,30.16,NNE,23,4.7,7.2,60,0.00,,,0.00,WUHU216HW,2013-01-13 06:47:00,
2013-01-12 22:52:00,41.8,28.9,30.16,NE,45,8.7,8.7,60,0.00,,,0.00,WUHU216HW,2013-01-13 06:52:00,
2013-01-12 22:57:00,41.8,28.4,30.16,NE,45,7.6,9.6,59,0.00,,,0.00,WUHU216HW,2013-01-13 06:57:00,
2013-01-12 23:02:00,41.8,28.4,30.16,NNE,23,6.5,9.6,59,0.00,,,0.00,WUHU216HW,2013-01-13 07:02:00,
2013-01-12 23:07:00,41.8,28.4,30.17,NE,45,9.8,9.8,59,0.00,,,0.00,WUHU216HW,2013-01-13 07:07:00,
2013-01-12 23:12:00,41.8,28.4,30.17,NNE,23,6.7,9.8,59,0.00,,,0.00,WUHU216HW,2013-01-13 07:12:00,
2013-01-12 23:17:00,41.6,28.3,30.17,North,0,10.1,10.1,59,0.00,,,0.00,WUHU216HW,2013-01-13 07:17:00,
2013-01-12 23:22:00,41.4,28.6,30.17,NNE,23,7.2,10.1,60,0.00,,,0.00,WUHU216HW,2013-01-13 07:22:00,
2013-01-12 23:27:00,41.4,28.6,30.17,NNE,23,8.5,8.5,60,0.00,,,0.00,WUHU216HW,2013-01-13 07:27:00,
2013-01-12 23:32:00,41.4,28.6,30.17,North,0,7.8,8.7,60,0.00,,,0.00,WUHU216HW,2013-01-13 07:32:00,
2013-01-12 23:37:00,41.2,28.5,30.17,NE,45,9.6,9.6,60,0.00,,,0.00,WUHU216HW,2013-01-13 07:37:00,
2013-01-12 23:42:00,41.0,28.3,30.18,NNE,23,8.5,9.6,60,0.00,,,0.00,WUHU216HW,2013-01-13 07:42:00,
2013-01-12 23:47:00,41.0,28.3,30.18,ENE,68,7.6,9.6,60,0.00,,,0.00,WUHU216HW,2013-01-13 07:47:00,
2013-01-12 23:52:00,40.9,28.1,30.18,NNE,23,7.8,9.6,60,0.00,,,0.00,WUHU216HW,2013-01-13 07:52:00,
2013-01-12 23:57:00,40.9,28.1,30.17,ENE,68,9.8,9.8,60,0.00,,,0.00,WUHU216HW,2013-01-13 07:57:00,